Year,Month,Day,Hour,Minute,Value (Times are PST for temperature in C)
2009,02,25,00,00,6.30
2009,02,25,00,01,6.30
2009,02,25,00,02,6.40
2009,02,25,00,03,6.40
2009,02,25,00,04,6.40
2009,02,25,00,05,6.40
2009,02,25,00,06,6.50
2009,02,25,00,07,6.50
2009,02,25,00,08,6.50
2009,02,25,00,09,6.50
2009,02,25,00,10,6.50
2009,02,25,00,11,6.40
2009,02,25,00,12,6.40
2009,02,25,00,13,6.40
2009,02,25,00,14,6.40
2009,02,25,00,15,6.40
2009,02,25,00,16,6.30
2009,02,25,00,17,6.30
2009,02,25,00,18,6.30
2009,02,25,00,19,6.20
2009,02,25,00,20,6.20
2009,02,25,00,21,6.10
2009,02,25,00,22,6.10
2009,02,25,00,23,6.00
2009,02,25,00,24,6.00
2009,02,25,00,25,5.90
2009,02,25,00,26,5.90
2009,02,25,00,27,5.80
2009,02,25,00,28,5.80
2009,02,25,00,29,5.80
2009,02,25,00,30,5.70
2009,02,25,00,31,5.70
2009,02,25,00,32,5.70
2009,02,25,00,33,5.60
2009,02,25,00,34,5.60
2009,02,25,00,35,5.60
2009,02,25,00,36,5.60
2009,02,25,00,37,5.60
2009,02,25,00,38,5.60
2009,02,25,00,39,5.60
2009,02,25,00,40,5.60
2009,02,25,00,41,5.60
2009,02,25,00,42,5.60
2009,02,25,00,43,5.60
2009,02,25,00,44,5.60
2009,02,25,00,45,5.60
2009,02,25,00,46,5.60
2009,02,25,00,47,5.50
2009,02,25,00,48,5.60
2009,02,25,00,49,5.50
2009,02,25,00,50,5.50
2009,02,25,00,51,5.40
2009,02,25,00,52,5.30
2009,02,25,00,53,5.30
2009,02,25,00,54,5.20
2009,02,25,00,55,5.20
2009,02,25,00,56,5.20
2009,02,25,00,57,5.20
2009,02,25,00,58,5.10
2009,02,25,00,59,5.10
2009,02,25,01,00,5.10
2009,02,25,01,01,5.20
2009,02,25,01,02,5.10
2009,02,25,01,03,5.20
2009,02,25,01,04,5.20
2009,02,25,01,05,5.20
2009,02,25,01,06,5.20
2009,02,25,01,07,5.30
2009,02,25,01,08,5.30
2009,02,25,01,09,5.40
2009,02,25,01,10,5.40
2009,02,25,01,11,5.40
2009,02,25,01,12,5.50
2009,02,25,01,13,5.50
2009,02,25,01,14,5.60
2009,02,25,01,15,5.60
2009,02,25,01,16,5.70
2009,02,25,01,17,5.70
2009,02,25,01,18,5.70
2009,02,25,01,19,5.70
2009,02,25,01,20,5.70
2009,02,25,01,21,5.70
2009,02,25,01,22,5.70
2009,02,25,01,23,5.70
2009,02,25,01,24,5.70
2009,02,25,01,25,5.70
2009,02,25,01,26,5.70
2009,02,25,01,27,5.60
2009,02,25,01,28,5.60
2009,02,25,01,29,5.60
2009,02,25,01,30,5.60
2009,02,25,01,31,5.50
2009,02,25,01,32,5.50
2009,02,25,01,33,5.60
2009,02,25,01,34,5.50
2009,02,25,01,35,5.50
2009,02,25,01,36,5.50
2009,02,25,01,37,5.50
2009,02,25,01,38,5.50
2009,02,25,01,39,5.50
2009,02,25,01,40,5.50
2009,02,25,01,41,5.60
2009,02,25,01,42,5.60
2009,02,25,01,43,5.60
2009,02,25,01,44,5.60
2009,02,25,01,45,5.60
2009,02,25,01,46,5.60
2009,02,25,01,47,5.60
2009,02,25,01,48,5.60
2009,02,25,01,49,5.50
2009,02,25,01,50,5.50
2009,02,25,01,51,5.50
2009,02,25,01,52,5.50
2009,02,25,01,53,5.50
2009,02,25,01,54,5.50
2009,02,25,01,55,5.50
2009,02,25,01,56,5.40
2009,02,25,01,57,5.50
2009,02,25,01,58,5.50
2009,02,25,01,59,5.50
2009,02,25,02,00,5.50
2009,02,25,02,01,5.50
2009,02,25,02,02,5.50
2009,02,25,02,03,5.50
2009,02,25,02,04,5.40
2009,02,25,02,05,5.40
2009,02,25,02,06,5.40
2009,02,25,02,07,5.40
2009,02,25,02,08,5.40
2009,02,25,02,09,5.40
2009,02,25,02,10,5.40
2009,02,25,02,11,5.50
2009,02,25,02,12,5.50
2009,02,25,02,13,5.50
2009,02,25,02,14,5.50
2009,02,25,02,15,5.50
2009,02,25,02,16,5.50
2009,02,25,02,17,5.50
2009,02,25,02,18,5.50
2009,02,25,02,19,5.40
2009,02,25,02,20,5.40
2009,02,25,02,21,5.40
2009,02,25,02,22,5.40
2009,02,25,02,23,5.30
2009,02,25,02,24,5.30
2009,02,25,02,25,5.30
2009,02,25,02,26,5.30
2009,02,25,02,27,5.20
2009,02,25,02,28,5.20
2009,02,25,02,29,5.10
2009,02,25,02,30,5.10
2009,02,25,02,31,5.10
2009,02,25,02,32,5.10
2009,02,25,02,33,5.10
2009,02,25,02,34,5.00
2009,02,25,02,35,5.00
2009,02,25,02,36,4.90
2009,02,25,02,37,4.90
2009,02,25,02,38,4.90
2009,02,25,02,39,4.80
2009,02,25,02,40,4.80
2009,02,25,02,41,4.80
2009,02,25,02,42,4.80
2009,02,25,02,43,4.80
2009,02,25,02,44,4.70
2009,02,25,02,45,4.70
2009,02,25,02,46,4.70
2009,02,25,02,47,4.70
2009,02,25,02,48,4.70
2009,02,25,02,49,4.70
2009,02,25,02,50,4.70
2009,02,25,02,51,4.70
2009,02,25,02,52,4.70
2009,02,25,02,53,4.70
2009,02,25,02,54,4.70
2009,02,25,02,55,4.70
2009,02,25,02,56,4.70
2009,02,25,02,57,4.70
2009,02,25,02,58,4.70
2009,02,25,02,59,4.80
2009,02,25,03,00,4.80
2009,02,25,03,01,4.80
2009,02,25,03,02,4.80
2009,02,25,03,03,4.80
2009,02,25,03,04,4.80
2009,02,25,03,05,4.80
2009,02,25,03,06,4.70
2009,02,25,03,07,4.70
2009,02,25,03,08,4.70
2009,02,25,03,09,4.70
2009,02,25,03,10,4.70
2009,02,25,03,11,4.70
2009,02,25,03,12,4.70
2009,02,25,03,13,4.70
2009,02,25,03,14,4.70
2009,02,25,03,15,4.70
2009,02,25,03,16,4.70
2009,02,25,03,17,4.60
2009,02,25,03,18,4.60
2009,02,25,03,19,4.60
2009,02,25,03,20,4.60
2009,02,25,03,21,4.50
2009,02,25,03,22,4.50
2009,02,25,03,23,4.50
2009,02,25,03,24,4.50
2009,02,25,03,25,4.40
2009,02,25,03,26,4.40
2009,02,25,03,27,4.40
2009,02,25,03,28,4.40
2009,02,25,03,29,4.40
2009,02,25,03,30,4.40
2009,02,25,03,31,4.50
2009,02,25,03,32,4.50
2009,02,25,03,33,4.50
2009,02,25,03,34,4.50
2009,02,25,03,35,4.50
2009,02,25,03,36,4.50
2009,02,25,03,37,4.60
2009,02,25,03,38,4.60
2009,02,25,03,39,4.60
2009,02,25,03,40,4.70
2009,02,25,03,41,4.70
2009,02,25,03,42,4.80
2009,02,25,03,43,4.80
2009,02,25,03,44,4.90
2009,02,25,03,45,4.90
2009,02,25,03,46,4.90
2009,02,25,03,47,5.00
2009,02,25,03,48,5.00
2009,02,25,03,49,5.00
2009,02,25,03,50,5.00
2009,02,25,03,51,5.00
2009,02,25,03,52,5.00
2009,02,25,03,53,5.00
2009,02,25,03,54,5.00
2009,02,25,03,55,4.90
2009,02,25,03,56,4.90
2009,02,25,03,57,4.90
2009,02,25,03,58,4.90
2009,02,25,03,59,4.90
2009,02,25,04,00,4.90
2009,02,25,04,01,4.90
2009,02,25,04,02,4.90
2009,02,25,04,03,4.80
2009,02,25,04,04,4.80
2009,02,25,04,05,4.80
2009,02,25,04,06,4.80
2009,02,25,04,07,4.80
2009,02,25,04,08,4.70
2009,02,25,04,09,4.60
2009,02,25,04,10,4.50
2009,02,25,04,11,4.50
2009,02,25,04,12,4.40
2009,02,25,04,13,4.40
2009,02,25,04,14,4.30
2009,02,25,04,15,4.30
2009,02,25,04,16,4.30
2009,02,25,04,17,4.30
2009,02,25,04,18,4.30
2009,02,25,04,19,4.30
2009,02,25,04,20,4.20
2009,02,25,04,21,4.20
2009,02,25,04,22,4.20
2009,02,25,04,23,4.20
2009,02,25,04,24,4.20
2009,02,25,04,25,4.20
2009,02,25,04,26,4.20
2009,02,25,04,27,4.10
2009,02,25,04,28,4.10
2009,02,25,04,29,4.10
2009,02,25,04,30,4.10
2009,02,25,04,31,4.00
2009,02,25,04,32,4.00
2009,02,25,04,33,4.00
2009,02,25,04,34,3.90
2009,02,25,04,35,3.90
2009,02,25,04,36,3.90
2009,02,25,04,37,3.90
2009,02,25,04,38,3.90
2009,02,25,04,39,3.80
2009,02,25,04,40,3.80
2009,02,25,04,41,3.80
2009,02,25,04,42,3.80
2009,02,25,04,43,3.80
2009,02,25,04,44,3.70
2009,02,25,04,45,3.70
2009,02,25,04,46,3.70
2009,02,25,04,47,3.70
2009,02,25,04,48,3.70
2009,02,25,04,49,3.80
2009,02,25,04,50,3.80
2009,02,25,04,51,3.80
2009,02,25,04,52,3.80
2009,02,25,04,53,3.90
2009,02,25,04,54,3.90
2009,02,25,04,55,4.00
2009,02,25,04,56,4.10
2009,02,25,04,57,4.10
2009,02,25,04,58,4.10
2009,02,25,04,59,4.00
2009,02,25,05,00,4.10
2009,02,25,05,01,4.10
2009,02,25,05,02,4.10
2009,02,25,05,03,4.00
2009,02,25,05,04,4.00
2009,02,25,05,05,3.90
2009,02,25,05,06,3.80
2009,02,25,05,07,3.80
2009,02,25,05,08,3.80
2009,02,25,05,09,3.70
2009,02,25,05,10,3.70
2009,02,25,05,11,3.60
2009,02,25,05,12,3.60
2009,02,25,05,13,3.60
2009,02,25,05,14,3.50
2009,02,25,05,15,3.50
2009,02,25,05,16,3.40
2009,02,25,05,17,3.40
2009,02,25,05,18,3.40
2009,02,25,05,19,3.30
2009,02,25,05,20,3.30
2009,02,25,05,21,3.30
2009,02,25,05,22,3.30
2009,02,25,05,23,3.30
2009,02,25,05,24,3.20
2009,02,25,05,25,3.20
2009,02,25,05,26,3.10
2009,02,25,05,27,3.10
2009,02,25,05,28,3.00
2009,02,25,05,29,3.00
2009,02,25,05,30,2.90
2009,02,25,05,31,2.90
2009,02,25,05,32,2.90
2009,02,25,05,33,3.00
2009,02,25,05,34,3.00
2009,02,25,05,35,3.10
2009,02,25,05,36,3.10
2009,02,25,05,37,3.00
2009,02,25,05,38,3.00
2009,02,25,05,39,2.90
2009,02,25,05,40,2.90
2009,02,25,05,41,2.90
2009,02,25,05,42,2.90
2009,02,25,05,43,2.80
2009,02,25,05,44,2.80
2009,02,25,05,45,2.70
2009,02,25,05,46,2.70
2009,02,25,05,47,2.70
2009,02,25,05,48,2.70
2009,02,25,05,49,2.60
2009,02,25,05,50,2.60
2009,02,25,05,51,2.60
2009,02,25,05,52,2.60
2009,02,25,05,53,2.60
2009,02,25,05,54,2.60
2009,02,25,05,55,2.50
2009,02,25,05,56,2.60
2009,02,25,05,57,2.60
2009,02,25,05,58,2.50
2009,02,25,05,59,2.50
2009,02,25,06,00,2.50
2009,02,25,06,01,2.50
2009,02,25,06,02,2.50
2009,02,25,06,03,2.40
2009,02,25,06,04,2.40
2009,02,25,06,05,2.40
2009,02,25,06,06,2.40
2009,02,25,06,07,2.50
2009,02,25,06,08,2.50
2009,02,25,06,09,2.50
2009,02,25,06,10,2.50
2009,02,25,06,11,2.40
2009,02,25,06,12,2.40
2009,02,25,06,13,2.40
2009,02,25,06,14,2.40
2009,02,25,06,15,2.40
2009,02,25,06,16,2.40
2009,02,25,06,17,2.50
2009,02,25,06,18,2.50
2009,02,25,06,19,2.50
2009,02,25,06,20,2.50
2009,02,25,06,21,2.50
2009,02,25,06,22,2.50
2009,02,25,06,23,2.50
2009,02,25,06,24,2.50
2009,02,25,06,25,2.50
2009,02,25,06,26,2.40
2009,02,25,06,27,2.40
2009,02,25,06,28,2.40
2009,02,25,06,29,2.40
2009,02,25,06,30,2.40
2009,02,25,06,31,2.40
2009,02,25,06,32,2.30
2009,02,25,06,33,2.40
2009,02,25,06,34,2.30
2009,02,25,06,35,2.30
2009,02,25,06,36,2.30
2009,02,25,06,37,2.30
2009,02,25,06,38,2.40
2009,02,25,06,39,2.50
2009,02,25,06,40,2.70
2009,02,25,06,41,2.80
2009,02,25,06,42,2.80
2009,02,25,06,43,2.80
2009,02,25,06,44,2.90
2009,02,25,06,45,2.90
2009,02,25,06,46,2.90
2009,02,25,06,47,2.90
2009,02,25,06,48,2.90
2009,02,25,06,49,2.90
2009,02,25,06,50,2.90
2009,02,25,06,51,3.00
2009,02,25,06,52,3.00
2009,02,25,06,53,3.10
2009,02,25,06,54,3.10
2009,02,25,06,55,3.10
2009,02,25,06,56,3.10
2009,02,25,06,57,3.00
2009,02,25,06,58,3.00
2009,02,25,06,59,3.00
2009,02,25,07,00,3.00
2009,02,25,07,01,3.10
2009,02,25,07,02,3.00
2009,02,25,07,03,3.00
2009,02,25,07,04,3.00
2009,02,25,07,05,2.90
2009,02,25,07,06,2.90
2009,02,25,07,07,2.90
2009,02,25,07,08,2.90
2009,02,25,07,09,2.90
2009,02,25,07,10,2.90
2009,02,25,07,11,2.90
2009,02,25,07,12,2.80
2009,02,25,07,13,2.80
2009,02,25,07,14,2.70
2009,02,25,07,15,2.70
2009,02,25,07,16,2.60
2009,02,25,07,17,2.60
2009,02,25,07,18,2.60
2009,02,25,07,19,2.50
2009,02,25,07,20,2.50
2009,02,25,07,21,2.50
2009,02,25,07,22,2.50
2009,02,25,07,23,2.50
2009,02,25,07,24,2.50
2009,02,25,07,25,2.50
2009,02,25,07,26,2.60
2009,02,25,07,27,2.70
2009,02,25,07,28,2.80
2009,02,25,07,29,2.80
2009,02,25,07,30,2.90
2009,02,25,07,31,2.90
2009,02,25,07,32,3.00
2009,02,25,07,33,3.10
2009,02,25,07,34,3.20
2009,02,25,07,35,3.20
2009,02,25,07,36,3.20
2009,02,25,07,37,3.20
2009,02,25,07,38,3.20
2009,02,25,07,39,3.20
2009,02,25,07,40,3.20
2009,02,25,07,41,3.20
2009,02,25,07,42,3.20
2009,02,25,07,43,3.10
2009,02,25,07,44,3.10
2009,02,25,07,45,3.10
2009,02,25,07,46,3.10
2009,02,25,07,47,3.20
2009,02,25,07,48,3.30
2009,02,25,07,49,3.30
2009,02,25,07,50,3.20
2009,02,25,07,51,3.10
2009,02,25,07,52,3.10
2009,02,25,07,53,3.10
2009,02,25,07,54,3.10
2009,02,25,07,55,3.30
2009,02,25,07,56,3.50
2009,02,25,07,57,3.70
2009,02,25,07,58,3.80
2009,02,25,07,59,4.00
2009,02,25,08,00,4.00
2009,02,25,08,01,4.10
2009,02,25,08,02,4.20
2009,02,25,08,03,4.30
2009,02,25,08,04,4.40
2009,02,25,08,05,4.40
2009,02,25,08,06,4.50
2009,02,25,08,07,4.60
2009,02,25,08,08,4.70
2009,02,25,08,09,4.80
2009,02,25,08,10,4.80
2009,02,25,08,11,4.80
2009,02,25,08,12,4.70
2009,02,25,08,13,4.60
2009,02,25,08,14,4.60
2009,02,25,08,15,4.80
2009,02,25,08,16,4.90
2009,02,25,08,17,5.10
2009,02,25,08,18,5.10
2009,02,25,08,19,5.10
2009,02,25,08,20,5.10
2009,02,25,08,21,5.10
2009,02,25,08,22,5.00
2009,02,25,08,23,4.80
2009,02,25,08,24,4.80
2009,02,25,08,25,4.90
2009,02,25,08,26,5.00
2009,02,25,08,27,5.00
2009,02,25,08,28,5.00
2009,02,25,08,29,5.10
2009,02,25,08,30,5.10
2009,02,25,08,31,5.10
2009,02,25,08,32,5.10
2009,02,25,08,33,5.10
2009,02,25,08,34,5.20
2009,02,25,08,35,5.20
2009,02,25,08,36,5.30
2009,02,25,08,37,5.30
2009,02,25,08,38,5.30
2009,02,25,08,39,5.40
2009,02,25,08,40,5.40
2009,02,25,08,41,5.40
2009,02,25,08,42,5.40
2009,02,25,08,43,5.40
2009,02,25,08,44,5.40
2009,02,25,08,45,5.40
2009,02,25,08,46,5.30
2009,02,25,08,47,5.30
2009,02,25,08,48,5.30
2009,02,25,08,49,5.30
2009,02,25,08,50,5.30
2009,02,25,08,51,5.30
2009,02,25,08,52,5.30
2009,02,25,08,53,5.40
2009,02,25,08,54,5.50
2009,02,25,08,55,5.50
2009,02,25,08,56,5.60
2009,02,25,08,57,5.70
2009,02,25,08,58,5.70
2009,02,25,08,59,5.80
2009,02,25,09,00,5.80
2009,02,25,09,01,5.80
2009,02,25,09,02,5.80
2009,02,25,09,03,5.80
2009,02,25,09,04,5.80
2009,02,25,09,05,5.80
2009,02,25,09,06,5.80
2009,02,25,09,07,5.80
2009,02,25,09,08,5.90
2009,02,25,09,09,5.90
2009,02,25,09,10,6.00
2009,02,25,09,11,6.10
2009,02,25,09,12,6.20
2009,02,25,09,13,6.30
2009,02,25,09,14,6.30
2009,02,25,09,15,6.30
2009,02,25,09,16,6.30
2009,02,25,09,17,6.30
2009,02,25,09,18,6.30
2009,02,25,09,19,6.30
2009,02,25,09,20,6.20
2009,02,25,09,21,6.20
2009,02,25,09,22,6.20
2009,02,25,09,23,6.10
2009,02,25,09,24,6.10
2009,02,25,09,25,6.10
2009,02,25,09,26,6.10
2009,02,25,09,27,6.20
2009,02,25,09,28,6.20
2009,02,25,09,29,6.30
2009,02,25,09,30,6.30
2009,02,25,09,31,6.30
2009,02,25,09,32,6.30
2009,02,25,09,33,6.30
2009,02,25,09,34,6.20
2009,02,25,09,35,6.20
2009,02,25,09,36,6.10
2009,02,25,09,37,6.10
2009,02,25,09,38,6.10
2009,02,25,09,39,6.10
2009,02,25,09,40,6.10
2009,02,25,09,41,6.20
2009,02,25,09,42,6.20
2009,02,25,09,43,6.10
2009,02,25,09,44,6.00
2009,02,25,09,45,6.00
2009,02,25,09,46,6.00
2009,02,25,09,47,6.00
2009,02,25,09,48,6.00
2009,02,25,09,49,6.00
2009,02,25,09,50,6.00
2009,02,25,09,51,6.10
2009,02,25,09,52,6.10
2009,02,25,09,53,6.20
2009,02,25,09,54,6.20
2009,02,25,09,55,6.30
2009,02,25,09,56,6.30
2009,02,25,09,57,6.40
2009,02,25,09,58,6.40
2009,02,25,09,59,6.50
2009,02,25,10,00,6.50
2009,02,25,10,01,6.60
2009,02,25,10,02,6.60
2009,02,25,10,03,6.70
2009,02,25,10,04,6.70
2009,02,25,10,05,6.70
2009,02,25,10,06,6.70
2009,02,25,10,07,6.70
2009,02,25,10,08,6.80
2009,02,25,10,09,6.80
2009,02,25,10,10,6.80
2009,02,25,10,11,6.80
2009,02,25,10,12,6.80
2009,02,25,10,13,6.90
2009,02,25,10,14,6.90
2009,02,25,10,15,7.00
2009,02,25,10,16,7.00
2009,02,25,10,17,6.90
2009,02,25,10,18,6.80
2009,02,25,10,19,6.70
2009,02,25,10,20,6.80
2009,02,25,10,21,6.80
2009,02,25,10,22,7.00
2009,02,25,10,23,7.00
2009,02,25,10,24,6.90
2009,02,25,10,25,6.80
2009,02,25,10,26,6.70
2009,02,25,10,27,6.70
2009,02,25,10,28,6.70
2009,02,25,10,29,6.60
2009,02,25,10,30,6.40
2009,02,25,10,31,6.00
2009,02,25,10,32,5.60
2009,02,25,10,33,5.30
2009,02,25,10,34,5.10
2009,02,25,10,35,5.00
2009,02,25,10,36,4.80
2009,02,25,10,37,4.70
2009,02,25,10,38,4.70
2009,02,25,10,39,4.60
2009,02,25,10,40,4.60
2009,02,25,10,41,4.60
2009,02,25,10,42,4.60
2009,02,25,10,43,4.70
2009,02,25,10,44,4.80
2009,02,25,10,45,4.90
2009,02,25,10,46,5.00
2009,02,25,10,47,5.00
2009,02,25,10,48,5.00
2009,02,25,10,49,4.90
2009,02,25,10,50,4.90
2009,02,25,10,51,4.80
2009,02,25,10,52,4.60
2009,02,25,10,53,4.40
2009,02,25,10,54,4.20
2009,02,25,10,55,4.00
2009,02,25,10,56,3.80
2009,02,25,10,57,3.70
2009,02,25,10,58,3.60
2009,02,25,10,59,3.50
2009,02,25,11,00,3.40
2009,02,25,11,01,3.30
2009,02,25,11,02,3.10
2009,02,25,11,03,3.00
2009,02,25,11,04,2.90
2009,02,25,11,05,2.80
2009,02,25,11,06,2.70
2009,02,25,11,07,2.70
2009,02,25,11,08,2.60
2009,02,25,11,09,2.50
2009,02,25,11,10,2.50
2009,02,25,11,11,2.40
2009,02,25,11,12,2.40
2009,02,25,11,13,2.30
2009,02,25,11,14,2.30
2009,02,25,11,15,2.30
2009,02,25,11,16,2.30
2009,02,25,11,17,2.30
2009,02,25,11,18,2.30
2009,02,25,11,19,2.20
2009,02,25,11,20,2.10
2009,02,25,11,21,2.10
2009,02,25,11,22,2.00
2009,02,25,11,23,2.00
2009,02,25,11,24,2.00
2009,02,25,11,25,2.00
2009,02,25,11,26,2.00
2009,02,25,11,27,2.00
2009,02,25,11,28,2.00
2009,02,25,11,29,1.90
2009,02,25,11,30,1.90
2009,02,25,11,31,1.80
2009,02,25,11,32,1.80
2009,02,25,11,33,1.80
2009,02,25,11,34,1.70
2009,02,25,11,35,1.70
2009,02,25,11,36,1.70
2009,02,25,11,37,1.70
2009,02,25,11,38,1.70
2009,02,25,11,39,1.70
2009,02,25,11,40,1.70
2009,02,25,11,41,1.60
2009,02,25,11,42,1.70
2009,02,25,11,43,1.70
2009,02,25,11,44,1.60
2009,02,25,11,45,1.60
2009,02,25,11,46,1.60
2009,02,25,11,47,1.60
2009,02,25,11,48,1.50
2009,02,25,11,49,1.50
2009,02,25,11,50,1.40
2009,02,25,11,51,1.40
2009,02,25,11,52,1.50
2009,02,25,11,53,1.60
2009,02,25,11,54,1.60
2009,02,25,11,55,1.60
2009,02,25,11,56,1.70
2009,02,25,11,57,1.70
2009,02,25,11,58,1.70
2009,02,25,11,59,1.70
2009,02,25,12,00,1.70
2009,02,25,12,01,1.70
2009,02,25,12,02,1.80
2009,02,25,12,03,1.90
2009,02,25,12,04,2.00
2009,02,25,12,05,2.10
2009,02,25,12,06,2.10
2009,02,25,12,07,2.20
2009,02,25,12,08,2.20
2009,02,25,12,09,2.20
2009,02,25,12,10,2.20
2009,02,25,12,11,2.30
2009,02,25,12,12,2.30
2009,02,25,12,13,2.30
2009,02,25,12,14,2.20
2009,02,25,12,15,2.20
2009,02,25,12,16,2.10
2009,02,25,12,17,2.10
2009,02,25,12,18,2.00
2009,02,25,12,19,2.00
2009,02,25,12,20,2.00
2009,02,25,12,21,2.00
2009,02,25,12,22,2.00
2009,02,25,12,23,2.00
2009,02,25,12,24,1.90
2009,02,25,12,25,1.90
2009,02,25,12,26,1.90
2009,02,25,12,27,2.00
2009,02,25,12,28,2.00
2009,02,25,12,29,2.00
2009,02,25,12,30,1.90
2009,02,25,12,31,1.90
2009,02,25,12,32,2.00
2009,02,25,12,33,2.10
2009,02,25,12,34,2.00
2009,02,25,12,35,2.00
2009,02,25,12,36,1.90
2009,02,25,12,37,1.90
2009,02,25,12,38,1.90
2009,02,25,12,39,1.80
2009,02,25,12,40,1.80
2009,02,25,12,41,1.80
2009,02,25,12,42,1.80
2009,02,25,12,43,1.90
2009,02,25,12,44,1.90
2009,02,25,12,45,1.90
2009,02,25,12,46,1.90
2009,02,25,12,47,1.90
2009,02,25,12,48,2.00
2009,02,25,12,49,2.00
2009,02,25,12,50,2.10
2009,02,25,12,51,2.10
2009,02,25,12,52,2.10
2009,02,25,12,53,2.10
2009,02,25,12,54,2.10
2009,02,25,12,55,2.20
2009,02,25,12,56,2.20
2009,02,25,12,57,2.30
2009,02,25,12,58,2.40
2009,02,25,12,59,2.50
2009,02,25,13,00,2.50
2009,02,25,13,01,2.60
2009,02,25,13,02,2.70
2009,02,25,13,03,2.80
2009,02,25,13,04,2.90
2009,02,25,13,05,3.00
2009,02,25,13,06,3.10
2009,02,25,13,07,3.10
2009,02,25,13,08,3.10
2009,02,25,13,09,3.10
2009,02,25,13,10,3.10
2009,02,25,13,11,3.10
2009,02,25,13,12,3.00
2009,02,25,13,13,2.90
2009,02,25,13,14,2.70
2009,02,25,13,15,2.60
2009,02,25,13,16,2.40
2009,02,25,13,17,2.30
2009,02,25,13,18,2.30
2009,02,25,13,19,2.20
2009,02,25,13,20,2.10
2009,02,25,13,21,2.10
2009,02,25,13,22,2.10
2009,02,25,13,23,2.10
2009,02,25,13,24,2.10
2009,02,25,13,25,2.10
2009,02,25,13,26,2.00
2009,02,25,13,27,2.00
2009,02,25,13,28,1.90
2009,02,25,13,29,1.90
2009,02,25,13,30,1.90
2009,02,25,13,31,1.90
2009,02,25,13,32,1.90
2009,02,25,13,33,1.90
2009,02,25,13,34,1.90
2009,02,25,13,35,1.90
2009,02,25,13,36,1.90
2009,02,25,13,37,1.90
2009,02,25,13,38,1.90
2009,02,25,13,39,1.90
2009,02,25,13,40,1.90
2009,02,25,13,41,1.90
2009,02,25,13,42,1.90
2009,02,25,13,43,1.90
2009,02,25,13,44,1.80
2009,02,25,13,45,1.80
2009,02,25,13,46,1.60
2009,02,25,13,47,1.50
2009,02,25,13,48,1.30
2009,02,25,13,49,1.30
2009,02,25,13,50,1.20
2009,02,25,13,51,1.20
2009,02,25,13,52,1.10
2009,02,25,13,53,1.10
2009,02,25,13,54,1.10
2009,02,25,13,55,1.20
2009,02,25,13,56,1.20
2009,02,25,13,57,1.20
2009,02,25,13,58,1.20
2009,02,25,13,59,1.30
2009,02,25,14,00,1.30
2009,02,25,14,01,1.30
2009,02,25,14,02,1.20
2009,02,25,14,03,1.20
2009,02,25,14,04,1.20
2009,02,25,14,05,1.20
2009,02,25,14,06,1.20
2009,02,25,14,07,1.20
2009,02,25,14,08,1.30
2009,02,25,14,09,1.30
2009,02,25,14,10,1.30
2009,02,25,14,11,1.30
2009,02,25,14,12,1.20
2009,02,25,14,13,1.20
2009,02,25,14,14,1.20
2009,02,25,14,15,1.10
2009,02,25,14,16,1.10
2009,02,25,14,17,1.10
2009,02,25,14,18,1.10
2009,02,25,14,19,1.10
2009,02,25,14,20,1.10
2009,02,25,14,21,1.10
2009,02,25,14,22,1.00
2009,02,25,14,23,1.10
2009,02,25,14,24,1.10
2009,02,25,14,25,1.10
2009,02,25,14,26,1.10
2009,02,25,14,27,1.10
2009,02,25,14,28,1.10
2009,02,25,14,29,1.10
2009,02,25,14,30,1.20
2009,02,25,14,31,1.20
2009,02,25,14,32,1.20
2009,02,25,14,33,1.20
2009,02,25,14,34,1.20
2009,02,25,14,35,1.20
2009,02,25,14,36,1.20
2009,02,25,14,37,1.20
2009,02,25,14,38,1.20
2009,02,25,14,39,1.20
2009,02,25,14,40,1.20
2009,02,25,14,41,1.20
2009,02,25,14,42,1.20
2009,02,25,14,43,1.20
2009,02,25,14,44,1.20
2009,02,25,14,45,1.20
2009,02,25,14,46,1.20
2009,02,25,14,47,1.20
2009,02,25,14,48,1.20
2009,02,25,14,49,1.20
2009,02,25,14,50,1.10
2009,02,25,14,51,1.10
2009,02,25,14,52,1.10
2009,02,25,14,53,1.10
2009,02,25,14,54,1.10
2009,02,25,14,55,1.10
2009,02,25,14,56,1.10
2009,02,25,14,57,1.10
2009,02,25,14,58,1.10
2009,02,25,14,59,1.10
2009,02,25,15,00,1.10
2009,02,25,15,01,1.10
2009,02,25,15,02,1.20
2009,02,25,15,03,1.20
2009,02,25,15,04,1.20
2009,02,25,15,05,1.20
2009,02,25,15,06,1.20
2009,02,25,15,07,1.20
2009,02,25,15,08,1.20
2009,02,25,15,09,1.10
2009,02,25,15,10,1.10
2009,02,25,15,11,1.10
2009,02,25,15,12,1.10
2009,02,25,15,13,1.00
2009,02,25,15,14,1.00
2009,02,25,15,15,0.90
2009,02,25,15,16,0.90
2009,02,25,15,17,0.90
2009,02,25,15,18,0.90
2009,02,25,15,19,0.90
2009,02,25,15,20,0.90
2009,02,25,15,21,0.90
2009,02,25,15,22,0.90
2009,02,25,15,23,0.90
2009,02,25,15,24,0.90
2009,02,25,15,25,0.80
2009,02,25,15,26,0.80
2009,02,25,15,27,0.90
2009,02,25,15,28,0.90
2009,02,25,15,29,0.80
2009,02,25,15,30,0.80
2009,02,25,15,31,0.80
2009,02,25,15,32,0.80
2009,02,25,15,33,0.80
2009,02,25,15,34,0.80
2009,02,25,15,35,0.80
2009,02,25,15,36,0.80
2009,02,25,15,37,0.80
2009,02,25,15,38,0.70
2009,02,25,15,39,0.70
2009,02,25,15,40,0.70
2009,02,25,15,41,0.70
2009,02,25,15,42,0.70
2009,02,25,15,43,0.70
2009,02,25,15,44,0.70
2009,02,25,15,45,0.70
2009,02,25,15,46,0.70
2009,02,25,15,47,0.70
2009,02,25,15,48,0.70
2009,02,25,15,49,0.70
2009,02,25,15,50,0.70
2009,02,25,15,51,0.70
2009,02,25,15,52,0.80
2009,02,25,15,53,0.80
2009,02,25,15,54,0.80
2009,02,25,15,55,0.80
2009,02,25,15,56,0.80
2009,02,25,15,57,0.80
2009,02,25,15,58,0.80
2009,02,25,15,59,0.80
2009,02,25,16,00,0.80
2009,02,25,16,01,0.90
2009,02,25,16,02,0.90
2009,02,25,16,03,0.90
2009,02,25,16,04,0.90
2009,02,25,16,05,0.90
2009,02,25,16,06,0.90
2009,02,25,16,07,0.90
2009,02,25,16,08,0.90
2009,02,25,16,09,0.90
2009,02,25,16,10,0.90
2009,02,25,16,11,1.00
2009,02,25,16,12,1.00
2009,02,25,16,13,0.90
2009,02,25,16,14,0.90
2009,02,25,16,15,1.00
2009,02,25,16,16,1.00
2009,02,25,16,17,1.00
2009,02,25,16,18,1.00
2009,02,25,16,19,1.00
2009,02,25,16,20,1.00
2009,02,25,16,21,1.00
2009,02,25,16,22,1.00
2009,02,25,16,23,1.00
2009,02,25,16,24,1.00
2009,02,25,16,25,1.00
2009,02,25,16,26,0.90
2009,02,25,16,27,0.90
2009,02,25,16,28,0.90
2009,02,25,16,29,1.00
2009,02,25,16,30,1.00
2009,02,25,16,31,1.00
2009,02,25,16,32,1.00
2009,02,25,16,33,1.00
2009,02,25,16,34,1.00
2009,02,25,16,35,1.00
2009,02,25,16,36,0.90
2009,02,25,16,37,0.90
2009,02,25,16,38,0.90
2009,02,25,16,39,0.90
2009,02,25,16,40,1.00
2009,02,25,16,41,1.00
2009,02,25,16,42,1.00
2009,02,25,16,43,1.00
2009,02,25,16,44,1.00
2009,02,25,16,45,1.00
2009,02,25,16,46,0.90
2009,02,25,16,47,0.90
2009,02,25,16,48,0.90
2009,02,25,16,49,0.90
2009,02,25,16,50,0.90
2009,02,25,16,51,0.80
2009,02,25,16,52,0.80
2009,02,25,16,53,0.80
2009,02,25,16,54,0.80
2009,02,25,16,55,0.70
2009,02,25,16,56,0.70
2009,02,25,16,57,0.70
2009,02,25,16,58,0.60
2009,02,25,16,59,0.60
2009,02,25,17,00,0.60
2009,02,25,17,01,0.60
2009,02,25,17,02,0.60
2009,02,25,17,03,0.50
2009,02,25,17,04,0.50
2009,02,25,17,05,0.50
2009,02,25,17,06,0.40
2009,02,25,17,07,0.40
2009,02,25,17,08,0.40
2009,02,25,17,09,0.40
2009,02,25,17,10,0.40
2009,02,25,17,11,0.30
2009,02,25,17,12,0.30
2009,02,25,17,13,0.30
2009,02,25,17,14,0.20
2009,02,25,17,15,0.20
2009,02,25,17,16,0.20
2009,02,25,17,17,0.10
2009,02,25,17,18,0.10
2009,02,25,17,19,0.10
2009,02,25,17,20,0.10
2009,02,25,17,21,0.10
2009,02,25,17,22,0.00
2009,02,25,17,23,0.00
2009,02,25,17,24,-0.10
2009,02,25,17,25,-0.10
2009,02,25,17,26,-0.10
2009,02,25,17,27,-0.10
2009,02,25,17,28,-0.10
2009,02,25,17,29,-0.20
2009,02,25,17,30,-0.20
2009,02,25,17,31,-0.20
2009,02,25,17,32,-0.20
2009,02,25,17,33,-0.20
2009,02,25,17,34,-0.20
2009,02,25,17,35,-0.20
2009,02,25,17,36,-0.20
2009,02,25,17,37,-0.20
2009,02,25,17,38,-0.20
2009,02,25,17,39,-0.20
2009,02,25,17,40,-0.20
2009,02,25,17,41,-0.20
2009,02,25,17,42,-0.20
2009,02,25,17,43,-0.30
2009,02,25,17,44,-0.30
2009,02,25,17,45,-0.30
2009,02,25,17,46,-0.30
2009,02,25,17,47,-0.30
2009,02,25,17,48,-0.30
2009,02,25,17,49,-0.30
2009,02,25,17,50,-0.30
2009,02,25,17,51,-0.30
2009,02,25,17,52,-0.30
2009,02,25,17,53,-0.30
2009,02,25,17,54,-0.30
2009,02,25,17,55,-0.40
2009,02,25,17,56,-0.40
2009,02,25,17,57,-0.40
2009,02,25,17,58,-0.40
2009,02,25,17,59,-0.40
2009,02,25,18,00,-0.40
2009,02,25,18,01,-0.40
2009,02,25,18,02,-0.40
2009,02,25,18,03,-0.40
2009,02,25,18,04,-0.40